Find Starlink 1378

NORAD ID: 45548 Int'l Des: 2020-025 Owner: SPXS Country: US Constellation: starlink decayed
LEOCIRCULAR
Vis

Historical Track — Feb 25, 2025

Loading 3D Globe...

About Starlink 1378

Description loading...

Altitude History

Loading altitude history...

Two-Line Element Set

1 45548U 20025T 25056.43432917 .07610854 12212-4 74662-3 0 9997
2 45548 53.0240 312.3938 0007118 223.0942 306.1564 16.37409185268229
Epoch: Feb 25, 2025 • Age: 10395 hours

Current Status

Position data unavailable
Launch Date Apr 22, 2020
Age 6 years
Decay Date Feb 25, 2025
Type internet

Technical Details

Classification Payload
Mass 260.00 kg
Dry Mass 248.00 kg
Total Mass 260.00 kg
Length 0.20 m
Diameter 2.80 m
Span 9.00 m
Shape Box + pan
Manufacturer SPXS
Bus Type Starlink
Phase Status Reentered
Owner/State SPXS/US

Most Searched